Volver al catálogo

STARLINK-4789

ActivoComunicacionesVLEO
NORAD 53868·PAYLOAD·🇺🇸 United States

Lanzado Sep 19, 2022 desde Cape Canaveral Space Force Station

Loading…

Próximos Pases (próximas 24 horas)

TLE

ActualizadoSource: CelesTrak SupGP

Época: Sep 15, 2026, 02:43 UTC

1 53868C 22114BC  26258.11368056  .00032126  00000+0  91957-3 0  2588
2 53868  53.1570 118.9882 0001199  80.2620 175.6534 15.35368550    11

Sigue STARLINK-4789 en tiempo real con AllMySat

Download on the App Store